When you browse on this site, cookies collect data to enhance your experience and personalize the content and advertising you see.
Visit our Privacy Policy to learn more. By continuing to use the site, you agree to this use of cookies and data.
  • In Österreich
  • Länderverzeichnis
  • Für 7 Tage
  • Wassertemperatur
  • Wetterkarte
  • News
  • Widgets
  • user-avatar
    Anmelden

    Stündliche Wetter Pusan

    Heute, 5 April, Sonntag

    Zeit Temperatur Niederschläge Wind Luftdruck Luftfeuchtigkeit
    00:00 +8°C° 0.1 mm 5 m/S 764 mmHg 61%
    01:00 +7°C° 0 mm 5 m/S 764 mmHg 60%
    02:00 +7°C° 0 mm 5 m/S 764 mmHg 59%
    03:00 +6°C° 0 mm 4 m/S 764 mmHg 59%
    04:00 +6°C° 0 mm 4 m/S 764 mmHg 57%
    05:00 +5°C° 0 mm 3 m/S 764 mmHg 56%
    06:00 +5°C° 0 mm 3 m/S 764 mmHg 55%
    07:00 +7°C° 0 mm 3 m/S 764 mmHg 49%
    08:00 +8°C° 0 mm 2 m/S 765 mmHg 43%
    09:00 +10°C° 0 mm 2 m/S 765 mmHg 34%
    10:00 +13°C° 0 mm 2 m/S 765 mmHg 29%
    11:00 +14°C° 0 mm 1 m/S 765 mmHg 25%
    12:00 +16°C° 0 mm 1 m/S 765 mmHg 20%
    13:00 +16°C° 0 mm 2 m/S 765 mmHg 19%
    14:00 +16°C° 0 mm 3 m/S 764 mmHg 19%
    15:00 +16°C° 0 mm 3 m/S 763 mmHg 17%
    16:00 +14°C° 0 mm 3 m/S 764 mmHg 20%
    17:00 +14°C° 0 mm 3 m/S 764 mmHg 24%
    18:00 +13°C° 0 mm 3 m/S 764 mmHg 27%
    19:00 +12°C° 0 mm 3 m/S 764 mmHg 30%
    20:00 +11°C° 0 mm 3 m/S 765 mmHg 33%
    21:00 +10°C° 0 mm 2 m/S 765 mmHg 36%
    22:00 +10°C° 0 mm 2 m/S 765 mmHg 37%
    23:00 +9°C° 0 mm 2 m/S 765 mmHg 37%

    Morgen, 6 April, Montag

    Zeit Temperatur Niederschläge Wind Luftdruck Luftfeuchtigkeit
    00:00 +9°C° 0 mm 2 m/S 765 mmHg 38%
    01:00 +8°C° 0 mm 2 m/S 765 mmHg 38%
    02:00 +8°C° 0 mm 2 m/S 765 mmHg 38%
    03:00 +7°C° 0 mm 2 m/S 765 mmHg 38%
    04:00 +7°C° 0 mm 2 m/S 765 mmHg 37%
    05:00 +6°C° 0 mm 2 m/S 765 mmHg 36%
    06:00 +6°C° 0 mm 2 m/S 765 mmHg 35%
    07:00 +8°C° 0 mm 2 m/S 765 mmHg 30%
    08:00 +9°C° 0 mm 2 m/S 765 mmHg 26%
    09:00 +12°C° 0 mm 2 m/S 765 mmHg 22%
    10:00 +14°C° 0 mm 2 m/S 765 mmHg 20%
    11:00 +15°C° 0 mm 2 m/S 765 mmHg 17%
    12:00 +17°C° 0 mm 3 m/S 764 mmHg 15%
    13:00 +17°C° 0 mm 4 m/S 764 mmHg 18%
    14:00 +17°C° 0 mm 4 m/S 763 mmHg 21%
    15:00 +16°C° 0 mm 5 m/S 763 mmHg 24%
    16:00 +15°C° 0 mm 5 m/S 762 mmHg 28%
    17:00 +14°C° 0 mm 5 m/S 762 mmHg 32%
    18:00 +14°C° 0 mm 5 m/S 762 mmHg 35%
    19:00 +13°C° 0 mm 4 m/S 762 mmHg 37%
    20:00 +13°C° 0 mm 4 m/S 763 mmHg 40%
    21:00 +12°C° 0 mm 4 m/S 763 mmHg 42%
    22:00 +12°C° 0 mm 3 m/S 763 mmHg 43%
    23:00 +11°C° 0 mm 3 m/S 762 mmHg 44%

    übermorgen, 7 April, Dienstag

    Zeit Temperatur Niederschläge Wind Luftdruck Luftfeuchtigkeit
    00:00 +12°C° 0 mm 2 m/S 762 mmHg 44%
    01:00 +12°C° 0 mm 2 m/S 762 mmHg 45%
    02:00 +10°C° 0 mm 2 m/S 761 mmHg 46%
    03:00 +10°C° 0 mm 2 m/S 761 mmHg 47%
    04:00 +10°C° 0 mm 3 m/S 761 mmHg 48%
    05:00 +9°C° 0 mm 3 m/S 761 mmHg 49%
    06:00 +9°C° 0 mm 3 m/S 761 mmHg 50%
    07:00 +10°C° 0 mm 3 m/S 761 mmHg 44%
    08:00 +12°C° 0 mm 3 m/S 761 mmHg 37%
    09:00 +14°C° 0 mm 3 m/S 761 mmHg 30%
    10:00 +16°C° 0 mm 3 m/S 761 mmHg 29%
    11:00 +18°C° 0 mm 4 m/S 761 mmHg 28%
    12:00 +19°C° 0 mm 4 m/S 761 mmHg 26%
    13:00 +20°C° 0 mm 4 m/S 760 mmHg 26%
    14:00 +21°C° 0 mm 5 m/S 760 mmHg 25%
    15:00 +22°C° 0 mm 6 m/S 759 mmHg 25%
    16:00 +21°C° 0 mm 6 m/S 759 mmHg 28%
    17:00 +20°C° 0 mm 6 m/S 759 mmHg 30%
    18:00 +20°C° 0 mm 6 m/S 759 mmHg 33%
    19:00 +17°C° 0 mm 6 m/S 759 mmHg 37%
    20:00 +16°C° 0 mm 6 m/S 759 mmHg 40%
    21:00 +15°C° 0 mm 5 m/S 760 mmHg 44%
    22:00 +14°C° 0 mm 5 m/S 760 mmHg 46%
    23:00 +13°C° 0 mm 5 m/S 760 mmHg 48%

    8 April, Mittwoch

    Zeit Temperatur Niederschläge Wind Luftdruck Luftfeuchtigkeit
    00:00 +13°C° 0 mm 4 m/S 760 mmHg 51%
    01:00 +12°C° 0 mm 4 m/S 760 mmHg 53%
    02:00 +11°C° 0 mm 4 m/S 760 mmHg 55%
    03:00 +11°C° 0 mm 3 m/S 760 mmHg 57%
    04:00 +10°C° 0 mm 4 m/S 760 mmHg 53%
    05:00 +8°C° 0 mm 4 m/S 760 mmHg 50%
    06:00 +8°C° 0 mm 4 m/S 761 mmHg 47%
    07:00 +10°C° 0 mm 4 m/S 761 mmHg 40%
    08:00 +11°C° 0 mm 4 m/S 761 mmHg 33%
    09:00 +12°C° 0 mm 5 m/S 762 mmHg 27%
    10:00 +13°C° 0 mm 5 m/S 762 mmHg 24%
    11:00 +14°C° 0 mm 5 m/S 762 mmHg 21%
    12:00 +15°C° 0 mm 4 m/S 762 mmHg 17%
    13:00 +17°C° 0 mm 4 m/S 762 mmHg 17%
    14:00 +17°C° 0 mm 4 m/S 762 mmHg 17%
    15:00 +18°C° 0 mm 4 m/S 762 mmHg 17%
    16:00 +17°C° 0 mm 4 m/S 762 mmHg 18%
    17:00 +16°C° 0 mm 5 m/S 762 mmHg 19%
    18:00 +15°C° 0 mm 5 m/S 762 mmHg 19%
    19:00 +14°C° 0 mm 6 m/S 763 mmHg 21%
    20:00 +11°C° 0 mm 6 m/S 763 mmHg 23%
    21:00 +10°C° 0 mm 6 m/S 764 mmHg 25%
    22:00 +9°C° 0 mm 6 m/S 764 mmHg 27%
    23:00 +9°C° 0 mm 6 m/S 764 mmHg 28%

    9 April, Donnerstag

    Zeit Temperatur Niederschläge Wind Luftdruck Luftfeuchtigkeit
    00:00 +8°C° 0 mm 5 m/S 764 mmHg 30%
    01:00 +8°C° 0 mm 5 m/S 764 mmHg 30%
    02:00 +7°C° 0 mm 5 m/S 764 mmHg 31%
    03:00 +7°C° 0 mm 5 m/S 764 mmHg 32%
    04:00 +6°C° 0 mm 5 m/S 764 mmHg 33%
    05:00 +6°C° 0 mm 4 m/S 765 mmHg 34%
    06:00 +6°C° 0 mm 4 m/S 765 mmHg 35%
    07:00 +7°C° 0 mm 4 m/S 765 mmHg 33%
    08:00 +8°C° 0 mm 4 m/S 766 mmHg 30%
    09:00 +11°C° 0 mm 4 m/S 766 mmHg 28%
    10:00 +12°C° 0 mm 4 m/S 766 mmHg 25%
    11:00 +13°C° 0 mm 3 m/S 766 mmHg 23%
    12:00 +16°C° 0 mm 3 m/S 766 mmHg 20%
    13:00 +17°C° 0 mm 3 m/S 765 mmHg 19%
    14:00 +18°C° 0 mm 4 m/S 765 mmHg 17%
    15:00 +17°C° 0 mm 5 m/S 765 mmHg 15%
    16:00 +16°C° 0 mm 5 m/S 765 mmHg 19%
    17:00 +15°C° 0 mm 6 m/S 765 mmHg 23%
    18:00 +14°C° 0 mm 6 m/S 765 mmHg 27%
    19:00 +13°C° 0 mm 5 m/S 766 mmHg 32%
    20:00 +12°C° 0 mm 4 m/S 766 mmHg 36%
    21:00 +11°C° 0 mm 3 m/S 767 mmHg 41%
    22:00 +11°C° 0 mm 3 m/S 767 mmHg 42%
    23:00 +10°C° 0 mm 3 m/S 767 mmHg 43%

    10 April, Freitag

    Zeit Temperatur Niederschläge Wind Luftdruck Luftfeuchtigkeit
    00:00 +10°C° 0 mm 2 m/S 767 mmHg 43%
    01:00 +9°C° 0 mm 2 m/S 767 mmHg 44%
    02:00 +9°C° 0 mm 2 m/S 766 mmHg 45%
    03:00 +8°C° 0 mm 2 m/S 766 mmHg 46%
    04:00 +8°C° 0 mm 2 m/S 766 mmHg 46%
    05:00 +8°C° 0 mm 2 m/S 766 mmHg 45%
    06:00 +8°C° 0 mm 2 m/S 766 mmHg 44%
    07:00 +9°C° 0 mm 2 m/S 767 mmHg 40%
    08:00 +12°C° 0 mm 2 m/S 767 mmHg 36%
    09:00 +13°C° 0 mm 2 m/S 767 mmHg 31%
    10:00 +15°C° 0 mm 2 m/S 766 mmHg 27%
    11:00 +16°C° 0 mm 3 m/S 766 mmHg 23%
    12:00 +18°C° 0 mm 3 m/S 765 mmHg 18%
    13:00 +18°C° 0 mm 4 m/S 765 mmHg 19%
    14:00 +18°C° 0 mm 4 m/S 765 mmHg 19%
    15:00 +19°C° 0 mm 5 m/S 764 mmHg 20%
    16:00 +17°C° 0 mm 5 m/S 764 mmHg 24%
    17:00 +16°C° 0 mm 5 m/S 764 mmHg 29%
    18:00 +15°C° 0 mm 6 m/S 764 mmHg 33%
    19:00 +14°C° 0 mm 5 m/S 764 mmHg 37%
    20:00 +13°C° 0 mm 4 m/S 764 mmHg 41%
    21:00 +13°C° 0 mm 3 m/S 765 mmHg 45%
    22:00 +12°C° 0 mm 3 m/S 765 mmHg 44%
    23:00 +11°C° 0 mm 4 m/S 765 mmHg 43%
    Mehr zeigen